{"data":{"norad_id":62706,"epoch":"2026-09-19T01:10:04.939392Z","epoch_age_seconds":139755,"freshness":"FRESH","line1":"1 62706U 25009DB  26262.04866828  .00006131  00000+0  44858-3 0  9999","line2":"2 62706  97.6896 343.6384 0001750 269.8866  90.2159 15.03953833114267","mean_motion":15.03953833,"eccentricity":0.000175,"inclination_deg":97.6896,"raan_deg":343.6384,"arg_perigee_deg":269.8866,"mean_anomaly_deg":90.2159,"bstar":0.00044858,"rev_number":11426,"period_min":95.747619933756,"perigee_km":553.50561757208,"apogee_km":555.93211712565,"semimajor_km":6932.8558673489,"source":"CELESTRAK","updated_at":"2026-09-20T09:00:34.873213Z"}}